Regional Weather Roundup
Issued by NWS

Home | Current Version | Previous Version | Text Only | Print | Product List | Glossary On
Versions: 1 2 3 4 5 6 7 8 9 10 11 12 13 14 15 16 17 18 19 20 21 22 23 24 25 26 27
000
ASUS44 KBMX 300710
RWRAL

ALABAMA REGIONAL WEATHER ROUNDUP
NATIONAL WEATHER SERVICE BIRMINGHAM AL
200 AM CDT TUE MAY 30 2017

NOTE: "FAIR" INDICATES FEW OR NO CLOUDS BELOW 12,000 FEET
WITH NO SIGNIFICANT WEATHER AND/OR OBSTRUCTIONS TO VISIBILITY.

THE REMARK "TC" DENOTES TEMPERATURE IN DEGREES CELSIUS.

ALZ001>011-014-016>018-020-300800-
NORTH ALABAMA

CITY           SKY/WX    TMP DP  RH WIND       PRES   REMARKS
MUSCLE SHOALS  PTCLDY    65  63  93 CALM      30.07S FOG
HUNTSVILLE     CLOUDY    68  68 100 CALM      30.06F
DECATUR        CLOUDY    67  67 100 CALM      30.07S
HALEYVILLE     FAIR      66  65  96 SW3       30.09F
GADSDEN        FOG       67  66  97 CALM      30.08F VSB 1/2
$$

ALZ012-013-022-023-030>036-040>044-300800-
WEST CENTRAL ALABAMA

CITY           SKY/WX    TMP DP  RH WIND       PRES   REMARKS
TUSCALOOSA     CLOUDY    70  69  97 CALM      30.06F
$$

ALZ015-024>027-033>036-040>044-300800-
CENTRAL ALABAMA

CITY           SKY/WX    TMP DP  RH WIND       PRES   REMARKS
BIRMINGHAM     PTCLDY    71  70  96 CALM      30.09F
MONTGOMERY     LGT RAIN  75  69  81 SW5       30.08S
SHELBY CO ARPT CLOUDY    71  71 100 CALM      30.08S
MAXWELL AFB    CLOUDY    74  71  91 CALM      30.07S
GREENVILLE     FAIR      74  68  81 SW6       30.09S
$$

ALZ019-021-028-029-037-038-045>048-300800-
EAST CENTRAL ALABAMA

CITY           SKY/WX    TMP DP  RH WIND       PRES   REMARKS
ANNISTON       CLOUDY    68  67  96 CALM      30.08S
ALEXANDER CITY CLOUDY    69  69  98 CALM      30.09S
AUBURN         LGT RAIN  72  70  93 NW5       30.10S
$$

ALZ051>064-300800-
SOUTHWEST ALABAMA

CITY           SKY/WX    TMP DP  RH WIND       PRES   REMARKS
MOBILE         CLOUDY    72  69  90 E5        30.09S
BROOKLEY FIELD LGT RAIN  74  71  91 NE7       30.09S
EVERGREEN      LGT RAIN  74  66  76 W8G16     30.11S
$$

ALZ049-050-065>069-300800-
SOUTHEAST ALABAMA

CITY           SKY/WX    TMP DP  RH WIND       PRES   REMARKS
DOTHAN         CLOUDY    75  75 100 SW8       30.12S
OZARK          CLOUDY    74  73  96 SW5       30.09S
TROY           CLOUDY    72  72 100 CALM      30.09F
EUFAULA        FAIR      72  70  93 CALM      30.07S
$$




USA.gov is the U.S. government's official web portal to all federal, state and local government web resources and services.